Showing default

ICEYE-X2, 43800

Orbit data source: Space-Track

ICEYE-X2, 43800 is a payload satellite owned by ICEYE (FI) in SSO that was launched on Mon, 03 Dec 2018 UTC via an FALCON 9 launch vehicle from the Air Force Western Test Range (AFWTR). Payload-class satellites include a variety of spacecraft equipped with specific instruments for various scientific and technological missions. These include communications satellites like Starlink; space stations such as the ISS; scientific satellites like the Hubble; Earth observation satellites from companies like Planet Labs, Umbra, and HawkEye 360; GPS; miniature CubeSats for education and research; and military/defense satellites.

Loading next visibility...
Identifier
43800, 2018-099AU
Orbit
SSO
Country
Flag of FIFI / FIN
Related business
Manufacturer
ICEYE
Mission
Operational Commercial Radar Imaging
Bus & Motor
ICEYE, Unknown motor
Mass
80 kg wet, 80 kg dry
Launch date (UTC)
2018-12-03 (8 years ago)
Launch vehicle
FALCON 9
Launch site
Air Force Western Test Range (AFWTR)
Object type
Payload
Rocket body
Debris
Shape & HBR
Box + 1 Pan, 2.4 m
Radar Cross Section
1.837 m², Medium (>0.1 m² and < 1m²)

Expand to show TLE details & history
Last TLE update: 1 day ago

TLE from 1 day ago
0 ICEYE-X2
1 43800U 18099AU  26172.49296225  .00006604  00000-0  32996-3 0  9997
2 43800  97.4353 226.2595 0008514 289.8796  70.1520 15.17766719413470
Epoch: 2026-06-21T11:49Z
TLE epoch observation values (Epoch: 2026-06-21T11:49:51.938Z)
Latitude
-0.00002°
Longitude
139.10065°
Altitude
513.69 km
Speed
7.608 km/s
True Right ascension
15h 05m 02s
True Declination
0° 00' 00"
Sunlit
Object was in full shadow at epoch
Visualization orbit readout
Latitude
Unknown
Longitude
Unknown
Altitude
Unknown
Speed
Unknown
Apparent Right ascension
Unknown
Apparent Declination
Unknown
Sunlit
N/A
Visualization observer readout
Local Sidereal Time
23:19:44
Azimuth
Unknown
Elevation
Unknown
Doppler factor
Unknown
Orbital elements
Apogee altitude
515.426 km
Perigee altitude
503.698 km
Semi-major axis
6,887.699 km
Eccentricity
0.00085
Inclination
97.4353°
RAAN
226.2595°
Arg. of periapsis
289.8796°
True anomaly
70.2438°
Mean anomaly
70.152°
Eccentric anomaly
70.1979°
Mean motion
3.79692 °/min
Orbital period
94.81 mins
BSTAR
0.00032996
Loading maneuver chart data...
Computing Atmospheric mass density...
Loading historical data...
Loading historical data...
Loading historical data...
Loading historical data...
Loading historical data...
Loading historical data...
Loading historical data...

Documentation

Showing up to 5 results
|